EW9082 Providence RI US current weather conditions

sailwx.info

Wind from 117

Air temperature 23.3° C
Dewpoint 18.0° C

Last reported at 2019-Aug-23 22:01 UTC.
Time now 2019-Aug-23 22:37 UTC

Location: N 41°33' W 071°28'.
View on Google Maps.

See reports from other nearby stations

  
Tides and Currents Weather Stations Pressure Air Temp Water Temp Dewpoint Dewpoint Depression Visibility Wind Speed Wind Dir Waves Ship Positions
date/time (UTC)wind fromknots sea level pressurealtimeterstation pressurevisibilityair tempwater tempwave heightnotes
2019-Aug-23 22:01 117 23.3
2019-Aug-23 21:46 117 23.9
2019-Aug-23 21:32 117 24.4
2019-Aug-23 21:16 117 24.4
2019-Aug-23 21:01 117 24.4
2019-Aug-23 20:45 117 24.4
2019-Aug-23 20:31 117 23.9
2019-Aug-23 20:16 117 24.4
2019-Aug-23 20:01 117 24.4
2019-Aug-23 19:46 117 25.0
2019-Aug-23 19:30 110 25.6
2019-Aug-23 19:15 140 25.6
2019-Aug-23 19:00 138 26.1
2019-Aug-23 18:46 101 26.1
2019-Aug-23 18:31 233 25.0
2019-Aug-23 18:16 315 26.1
2019-Aug-23 18:01 126 24.4
2019-Aug-23 17:45 110 23.9
2019-Aug-23 17:31 110 23.9
2019-Aug-23 17:15 214 23.9
2019-Aug-23 17:00 192 23.3
2019-Aug-23 16:45 172 22.8
2019-Aug-23 16:30 217 21.7
2019-Aug-23 16:15 213 21.1
2019-Aug-23 16:00 221 20.6
2019-Aug-23 15:45 184 20.6
2019-Aug-23 15:30 133 20.0
2019-Aug-23 15:15 120 19.4
2019-Aug-23 15:00 124 19.4
2019-Aug-23 14:45 143 19.4
2019-Aug-23 14:30 212 18.9
2019-Aug-23 14:15 204 18.9
2019-Aug-23 14:00 181 18.3
2019-Aug-23 13:45 181 18.3
2019-Aug-23 13:30 121 17.8
2019-Aug-23 13:15 121 17.8
2019-Aug-23 13:00 120 17.8
2019-Aug-23 12:45 120 17.8
2019-Aug-23 12:30 118 17.8
2019-Aug-23 12:19 108 18.3
2019-Aug-23 12:02 143 18.9
2019-Aug-23 11:46 143 18.9
2019-Aug-23 11:32 143 19.4
2019-Aug-23 11:16 143 18.9
2019-Aug-23 11:01 143 18.9
2019-Aug-23 10:46 143 18.9
2019-Aug-23 10:31 143 18.9
2019-Aug-23 10:16 143 18.9
2019-Aug-23 10:02 143 18.9
2019-Aug-23 09:46 143 18.9
2019-Aug-23 09:31 143 19.4
2019-Aug-23 09:16 143 19.4
2019-Aug-23 09:01 143 20.6
2019-Aug-23 08:45 143 20.6
2019-Aug-23 08:31 143 20.6
2019-Aug-23 08:15 143 21.1
2019-Aug-23 08:01 143 21.1
2019-Aug-23 07:45 143 21.1
2019-Aug-23 07:31 143 21.1
2019-Aug-23 07:15 143 21.1
2019-Aug-23 07:00 143 21.7
2019-Aug-23 06:45 143 21.7
2019-Aug-23 06:30 143 22.2
2019-Aug-23 06:16 143 22.2
2019-Aug-23 06:00 143 22.2
2019-Aug-23 05:45 143 22.8
2019-Aug-23 05:30 143 22.8
2019-Aug-23 05:15 143 22.8
2019-Aug-23 05:00 143 23.3
2019-Aug-23 04:45 143 23.3
2019-Aug-23 04:32 143 23.3
2019-Aug-23 04:17 143 23.9
2019-Aug-23 04:01 143 23.3
2019-Aug-23 03:46 143 23.9
2019-Aug-23 03:31 143 23.9
2019-Aug-23 03:16 143 23.9
2019-Aug-23 03:02 143 23.9
2019-Aug-23 02:46 134 23.9
2019-Aug-23 02:31 134 23.9
2019-Aug-23 02:16 134 24.4
2019-Aug-23 02:02 146 24.4
2019-Aug-23 01:46 146 25.0
2019-Aug-23 01:32 146 25.0
2019-Aug-23 01:17 146 25.0
2019-Aug-23 01:02 175 25.0
2019-Aug-23 00:46 103 25.0
2019-Aug-23 00:32 198 25.6
2019-Aug-23 00:17 182 25.6
2019-Aug-23 00:01 195 0 gusting 2 26.1
2019-Aug-22 23:47 159 26.7
2019-Aug-22 23:31 202 26.7
2019-Aug-22 23:16 200 26.7
2019-Aug-22 23:01 127 27.2
2019-Aug-22 22:46 160 0 gusting 2 27.8
2019-Aug-22 22:32 210 0 gusting 3 28.3
2019-Aug-22 22:16 131 28.3
2019-Aug-22 22:02 101 28.9
2019-Aug-22 21:47 224 28.9
2019-Aug-22 21:31 149 28.9
2019-Aug-22 21:16 164 0 gusting 4 30.0
2019-Aug-22 21:01 099 0 gusting 4 29.4
2019-Aug-22 20:46 101 0 gusting 4 29.4
2019-Aug-22 20:31 199 0 gusting 4 29.4
2019-Aug-22 20:16 188 29.4
2019-Aug-22 20:00 169 0 gusting 4 29.4
2019-Aug-22 19:46 192 1 gusting 3 30.0
2019-Aug-22 19:31 141 0 gusting 5 29.4
2019-Aug-22 19:16 207 1 gusting 6 30.0
2019-Aug-22 18:46 200 3 gusting 6 30.0
2019-Aug-22 18:30 232 2 gusting 6 30.0
2019-Aug-22 18:15 204 1 gusting 6 31.7
2019-Aug-22 18:00 146 1 gusting 5 32.2
2019-Aug-22 17:46 095 0 gusting 5 31.7
2019-Aug-22 17:30 141 1 gusting 6 32.2
2019-Aug-22 17:15 130 1 gusting 3 31.7
2019-Aug-22 17:00 219 31.1
2019-Aug-22 16:46 263 0 gusting 4 31.1
2019-Aug-22 16:30 145 30.0
2019-Aug-22 16:15 122 1 gusting 3 30.6
2019-Aug-22 16:00 129 0 gusting 3 30.0
2019-Aug-22 15:45 166 0 gusting 3 29.4
2019-Aug-22 15:30 145 1 gusting 5 28.3
2019-Aug-22 15:15 136 0 gusting 5 28.3
2019-Aug-22 15:00 147 0 gusting 2 27.2
2019-Aug-22 14:45 154 26.1
2019-Aug-22 14:30 233 26.7
2019-Aug-22 14:02 158 26.1
2019-Aug-22 13:46 150 26.1
2019-Aug-22 13:33 152 26.1
2019-Aug-22 13:16 150 25.6
2019-Aug-22 13:01 199 26.1
2019-Aug-22 12:47 153 25.0
2019-Aug-22 12:31 221 25.0
2019-Aug-22 12:18 190 24.4
2019-Aug-22 12:01 158 23.9
2019-Aug-22 11:46 170 23.3
2019-Aug-22 11:31 151 23.3
2019-Aug-22 11:15 201 23.3
2019-Aug-22 11:02 109 22.8
2019-Aug-22 10:46 108 22.8
2019-Aug-22 10:31 105 22.8
2019-Aug-22 10:15 105 22.8
2019-Aug-22 10:01 105 22.8
2019-Aug-22 09:46 125 22.8
2019-Aug-22 09:30 138 22.8
2019-Aug-22 09:16 158 22.8
2019-Aug-22 09:02 201 22.8
2019-Aug-22 08:46 136 22.8
2019-Aug-22 08:31 135 22.8
2019-Aug-22 08:16 207 22.8
2019-Aug-22 08:01 140 23.3
2019-Aug-22 07:46 219 23.3
2019-Aug-22 07:30 153 23.3
2019-Aug-22 07:16 173 23.3
2019-Aug-22 07:01 219 0 gusting 4 23.3
2019-Aug-22 06:45 206 22.8
2019-Aug-22 06:30 219 22.8
2019-Aug-22 06:15 115 22.8
2019-Aug-22 06:00 166 22.8
2019-Aug-22 05:46 161 22.8
2019-Aug-22 05:30 151 22.8
2019-Aug-22 05:15 199 22.8
2019-Aug-22 05:00 098 23.3
2019-Aug-22 04:45 158 22.8
2019-Aug-22 04:30 194 22.8
2019-Aug-22 04:15 151 22.2
2019-Aug-22 04:00 198 22.2
2019-Aug-22 03:45 198 22.2
2019-Aug-22 03:30 172 22.2
2019-Aug-22 03:15 158 22.2
2019-Aug-22 03:00 041 22.8
2019-Aug-22 02:45 197 24.4
2019-Aug-22 02:30 150 0 gusting 6 25.0
2019-Aug-22 02:15 152 2 gusting 7 25.0
2019-Aug-22 02:00 179 1 gusting 4 25.0
2019-Aug-22 01:45 113 1 gusting 6 25.0
2019-Aug-22 01:30 149 1 gusting 5 25.0
2019-Aug-22 01:15 131 0 gusting 6 25.0
2019-Aug-22 01:00 157 1 gusting 5 25.0
2019-Aug-22 00:45 156 0 gusting 5 25.0
2019-Aug-22 00:30 177 1 gusting 6 25.0
2019-Aug-22 00:15 114 0 gusting 4 25.0
2019-Aug-21 23:47 174 1 gusting 6 25.0
2019-Aug-21 23:45 253 1 gusting 6 25.0
2019-Aug-21 23:32 174 25.0
2019-Aug-21 23:16 259 25.0
2019-Aug-21 23:02 214 1 gusting 6 25.0
2019-Aug-21 22:46 210 0 gusting 5 25.0
2019-Aug-21 22:31 162 2 gusting 7 25.0
2019-Aug-21 22:17 297 1 gusting 6 25.6
2019-Aug-21 22:01 111 2 gusting 6 25.6